EZY476H EGBB-EGPE

Flight info

Callsign EZY476H
Flight time 0h 56m
Altitude 32000
Route LUVUM DCT TNT N57 POL UN601 RIBEL DCT ERGAB DCT FOYLE DCT ERSON DCT NESDI DCT GUSSI
Aircraft A320/M-SDE3FGHIRWY/LB1

Departure

Time 2026-05-04 23:19
Airport Birmingham Airport (EGBB)

Arrival

Time 2026-05-05 00:16
Airport Inverness Airport (EGPE)
Time Latitude Longitude Altitude Speed Heading
2026-05-04 23:08 52.45436 -1.73484 323 ft 0 kts 146°
2026-05-04 23:10 52.45454 -1.73503 323 ft 4 kts 153°
2026-05-04 23:10 52.45479 -1.73518 321 ft 4 kts 172°
2026-05-04 23:11 52.45503 -1.73515 322 ft 4 kts 221°
2026-05-04 23:11 52.45510 -1.73502 323 ft 1 kts 236°
2026-05-04 23:11 52.45510 -1.73501 323 ft 0 kts 236°
2026-05-04 23:13 52.45509 -1.73504 322 ft 3 kts 236°
2026-05-04 23:13 52.45479 -1.73577 323 ft 8 kts 236°
2026-05-04 23:13 52.45450 -1.73646 323 ft 8 kts 236°
2026-05-04 23:14 52.45399 -1.73768 323 ft 15 kts 236°
2026-05-04 23:14 52.45340 -1.73910 323 ft 16 kts 236°
2026-05-04 23:14 52.45259 -1.73959 323 ft 14 kts 147°
2026-05-04 23:14 52.45178 -1.73864 323 ft 14 kts 145°
2026-05-04 23:15 52.45100 -1.73777 323 ft 14 kts 151°
2026-05-04 23:15 52.45005 -1.73710 322 ft 15 kts 147°
2026-05-04 23:15 52.44921 -1.73639 323 ft 13 kts 179°
2026-05-04 23:15 52.44842 -1.73674 323 ft 11 kts 196°
2026-05-04 23:16 52.44774 -1.73708 324 ft 10 kts 197°
2026-05-04 23:16 52.44726 -1.73758 324 ft 7 kts 236°
2026-05-04 23:16 52.44716 -1.73782 325 ft 0 kts 235°
2026-05-04 23:17 52.44710 -1.73796 324 ft 8 kts 237°
2026-05-04 23:17 52.44671 -1.73895 326 ft 10 kts 237°
2026-05-04 23:17 52.44657 -1.73991 324 ft 8 kts 306°
2026-05-04 23:18 52.44676 -1.74015 326 ft 0 kts 326°
2026-05-04 23:18 52.44720 -1.74064 325 ft 34 kts 326°
2026-05-04 23:18 52.45135 -1.74526 328 ft 106 kts 326°
2026-05-04 23:19 52.45912 -1.75389 329 ft 160 kts 325°
2026-05-04 23:19 52.46889 -1.76483 819 ft 174 kts 325°
2026-05-04 23:19 52.47883 -1.77600 1593 ft 175 kts 326°
2026-05-04 23:19 52.48968 -1.78735 1969 ft 197 kts 338°
2026-05-04 23:20 52.50387 -1.79070 2369 ft 220 kts
2026-05-04 23:20 52.51992 -1.78726 2851 ft 243 kts
2026-05-04 23:20 52.53708 -1.78359 3661 ft 252 kts
2026-05-04 23:20 52.55463 -1.77987 4604 ft 256 kts
2026-05-04 23:21 52.57247 -1.77611 5516 ft 261 kts
2026-05-04 23:21 52.59066 -1.77230 6264 ft 265 kts
2026-05-04 23:21 52.60881 -1.76856 7168 ft 268 kts
2026-05-04 23:21 52.62745 -1.76478 8001 ft 273 kts
2026-05-04 23:22 52.64652 -1.76092 8823 ft 279 kts
2026-05-04 23:22 52.66600 -1.75693 9641 ft 285 kts
2026-05-04 23:22 52.68596 -1.75287 10290 ft 296 kts
2026-05-04 23:22 52.70718 -1.74856 10568 ft 320 kts
2026-05-04 23:23 52.72997 -1.74384 10946 ft 337 kts
2026-05-04 23:23 52.75349 -1.73867 11634 ft 344 kts
2026-05-04 23:23 52.77732 -1.73325 12379 ft 348 kts
2026-05-04 23:23 52.80149 -1.72764 13110 ft 353 kts
2026-05-04 23:24 52.82595 -1.72195 13834 ft 357 kts
2026-05-04 23:24 52.85072 -1.71624 14456 ft 362 kts
2026-05-04 23:24 52.87582 -1.71049 15097 ft 365 kts
2026-05-04 23:24 52.90115 -1.70468 15749 ft 369 kts
2026-05-04 23:25 52.92671 -1.69886 16391 ft 373 kts
2026-05-04 23:25 52.95257 -1.69302 17035 ft 376 kts
2026-05-04 23:25 52.97861 -1.68711 17664 ft 380 kts
2026-05-04 23:25 53.00491 -1.68115 18291 ft 383 kts
2026-05-04 23:26 53.03146 -1.67628 18848 ft 385 kts
2026-05-04 23:26 53.05826 -1.67853 19383 ft 386 kts 349°
2026-05-04 23:26 53.08406 -1.68863 19908 ft 386 kts 339°
2026-05-04 23:26 53.10934 -1.70414 20448 ft 389 kts 337°
2026-05-04 23:27 53.13473 -1.71995 20969 ft 391 kts 337°
2026-05-04 23:27 53.16032 -1.73586 21491 ft 394 kts 337°
2026-05-04 23:27 53.18613 -1.75187 22011 ft 397 kts 337°
2026-05-04 23:27 53.21214 -1.76801 22506 ft 400 kts 337°
2026-05-04 23:28 53.23831 -1.78429 23002 ft 403 kts 337°
2026-05-04 23:28 53.26471 -1.80076 23464 ft 407 kts 339°
2026-05-04 23:28 53.29135 -1.81736 23858 ft 411 kts 339°
2026-05-04 23:28 53.31825 -1.83414 24264 ft 413 kts 339°
2026-05-04 23:29 53.34519 -1.85099 24690 ft 415 kts 339°
2026-05-04 23:29 53.37230 -1.86798 25104 ft 417 kts 339°
2026-05-04 23:29 53.39949 -1.88507 25516 ft 418 kts 339°
2026-05-04 23:29 53.42684 -1.90227 25920 ft 420 kts 340°
2026-05-04 23:30 53.45424 -1.91950 26308 ft 422 kts 340°
2026-05-04 23:30 53.48177 -1.93687 26706 ft 424 kts 340°
2026-05-04 23:30 53.50946 -1.95436 27099 ft 425 kts 340°
2026-05-04 23:30 53.53723 -1.97191 27468 ft 427 kts 340°
2026-05-04 23:31 53.56511 -1.98954 27842 ft 429 kts 340°
2026-05-04 23:31 53.59315 -2.00729 28216 ft 431 kts 340°
2026-05-04 23:31 53.62129 -2.02515 28582 ft 434 kts 340°
2026-05-04 23:31 53.64926 -2.04295 28923 ft 436 kts 340°
2026-05-04 23:32 53.67769 -2.06106 29268 ft 438 kts 340°
2026-05-04 23:32 53.70629 -2.07930 29595 ft 440 kts 340°
2026-05-04 23:32 53.73495 -2.09754 29927 ft 441 kts 340°
2026-05-04 23:32 53.76372 -2.11607 30248 ft 443 kts 339°
2026-05-04 23:33 53.79245 -2.13528 30526 ft 444 kts 338°
2026-05-04 23:33 53.82107 -2.15494 30815 ft 446 kts 338°
2026-05-04 23:33 53.84926 -2.17456 31075 ft 447 kts 338°
2026-05-04 23:33 53.87802 -2.19460 31391 ft 447 kts 338°
2026-05-04 23:34 53.90672 -2.21454 31786 ft 445 kts 338°
2026-05-04 23:34 53.93544 -2.23436 32022 ft 445 kts 338°
2026-05-04 23:34 53.99181 -2.27303 32074 ft 430 kts 338°
2026-05-04 23:35 54.04708 -2.31091 32073 ft 427 kts 338°
2026-05-04 23:35 54.10218 -2.34898 32070 ft 427 kts 337°
2026-05-04 23:36 54.15715 -2.38800 32071 ft 427 kts 333°
2026-05-04 23:36 54.20851 -2.43624 32070 ft 427 kts 330°
2026-05-04 23:37 54.26065 -2.48598 32080 ft 426 kts 330°
2026-05-04 23:37 54.31206 -2.53500 32081 ft 425 kts 330°
2026-05-04 23:38 54.36362 -2.58442 32075 ft 424 kts 330°
2026-05-04 23:38 54.41515 -2.63396 32069 ft 424 kts 330°
2026-05-04 23:39 54.45793 -2.67512 32061 ft 424 kts 330°
2026-05-04 23:39 54.50943 -2.72484 32074 ft 423 kts 329°
2026-05-04 23:40 54.56078 -2.77452 32081 ft 423 kts 329°
2026-05-04 23:40 54.61197 -2.82431 32080 ft 422 kts 329°
2026-05-04 23:41 54.66306 -2.87415 32076 ft 422 kts 329°
2026-05-04 23:41 54.71411 -2.92400 32071 ft 421 kts 329°
2026-05-04 23:42 54.76507 -2.97383 32087 ft 420 kts 328°
2026-05-04 23:42 54.81578 -3.02370 32085 ft 418 kts 328°
2026-05-04 23:43 54.86628 -3.07359 32084 ft 417 kts 328°
2026-05-04 23:43 54.91676 -3.12351 32076 ft 417 kts 328°
2026-05-04 23:44 54.96711 -3.17337 32083 ft 416 kts 328°
2026-05-04 23:44 55.01704 -3.22303 32079 ft 416 kts 327°
2026-05-04 23:45 55.06721 -3.27319 32058 ft 415 kts 327°
2026-05-04 23:45 55.11723 -3.32328 32062 ft 414 kts 327°
2026-05-04 23:46 55.16734 -3.37345 32056 ft 414 kts 327°
2026-05-04 23:46 55.21730 -3.42369 32067 ft 414 kts 327°
2026-05-04 23:47 55.26723 -3.47392 32068 ft 413 kts 327°
2026-05-04 23:47 55.31708 -3.52440 32063 ft 413 kts 327°
2026-05-04 23:48 55.36683 -3.57497 32070 ft 413 kts 326°
2026-05-04 23:48 55.41624 -3.62522 32066 ft 413 kts 327°
2026-05-04 23:49 55.46588 -3.67582 32058 ft 412 kts 326°
2026-05-04 23:49 55.51550 -3.72671 32074 ft 413 kts 326°
2026-05-04 23:50 55.56525 -3.77783 32063 ft 413 kts 326°
2026-05-04 23:50 55.61494 -3.82892 32057 ft 413 kts 326°
2026-05-04 23:51 55.66464 -3.88018 32051 ft 414 kts 326°
2026-05-04 23:51 55.71429 -3.93175 32043 ft 413 kts 326°
2026-05-04 23:52 55.76394 -3.98343 32050 ft 414 kts 326°
2026-05-04 23:52 55.81365 -4.03515 32044 ft 414 kts 326°
2026-05-04 23:53 55.86332 -4.08709 32040 ft 414 kts 326°
2026-05-04 23:53 55.91303 -4.13921 32041 ft 414 kts 326°
2026-05-04 23:54 55.96272 -4.19142 32042 ft 414 kts 326°
2026-05-04 23:54 56.01206 -4.24344 32042 ft 415 kts 326°
2026-05-04 23:55 56.06171 -4.29607 32040 ft 415 kts 326°
2026-05-04 23:55 56.11195 -4.34695 31882 ft 419 kts 333°
2026-05-04 23:56 56.13986 -4.36310 31624 ft 424 kts 344°
2026-05-04 23:56 56.16924 -4.37019 31364 ft 429 kts 353°
2026-05-04 23:56 56.19915 -4.36863 31112 ft 433 kts
2026-05-04 23:56 56.22903 -4.36153 30876 ft 432 kts
2026-05-04 23:57 56.25878 -4.35450 30630 ft 431 kts
2026-05-04 23:57 56.28852 -4.34763 30372 ft 430 kts
2026-05-04 23:57 56.31804 -4.34082 29925 ft 426 kts
2026-05-04 23:57 56.34736 -4.33398 29292 ft 422 kts
2026-05-04 23:58 56.37636 -4.32713 28709 ft 418 kts
2026-05-04 23:58 56.40512 -4.32028 28125 ft 415 kts
2026-05-04 23:58 56.43364 -4.31349 27553 ft 412 kts
2026-05-04 23:58 56.46191 -4.30681 27007 ft 408 kts
2026-05-04 23:59 56.48997 -4.30015 26479 ft 404 kts
2026-05-04 23:59 56.51771 -4.29352 25981 ft 400 kts
2026-05-04 23:59 56.54519 -4.28691 25465 ft 396 kts
2026-05-04 23:59 56.57234 -4.28037 24981 ft 392 kts
2026-05-05 00:00 56.59924 -4.27394 24501 ft 388 kts
2026-05-05 00:00 56.60793 -4.27187 24345 ft 387 kts
2026-05-05 00:00 56.65202 -4.26128 23561 ft 381 kts
2026-05-05 00:00 56.67813 -4.25494 23055 ft 377 kts
2026-05-05 00:01 56.70402 -4.24868 22600 ft 372 kts
2026-05-05 00:01 56.72954 -4.24255 22147 ft 368 kts
2026-05-05 00:01 56.75485 -4.23644 21674 ft 365 kts
2026-05-05 00:01 56.77989 -4.23033 21247 ft 362 kts
2026-05-05 00:02 56.80478 -4.22431 20764 ft 360 kts
2026-05-05 00:02 56.82956 -4.21831 20308 ft 357 kts
2026-05-05 00:02 56.85412 -4.21238 19829 ft 356 kts
2026-05-05 00:02 56.87864 -4.20642 19369 ft 355 kts
2026-05-05 00:03 56.90308 -4.20046 18897 ft 354 kts
2026-05-05 00:03 56.92747 -4.19449 18428 ft 354 kts
2026-05-05 00:03 56.95190 -4.18855 17913 ft 353 kts
2026-05-05 00:03 56.97619 -4.18264 17434 ft 351 kts
2026-05-05 00:04 57.00043 -4.17671 16885 ft 352 kts
2026-05-05 00:04 57.02475 -4.17073 16379 ft 351 kts
2026-05-05 00:04 57.04882 -4.16474 15953 ft 348 kts
2026-05-05 00:04 57.07278 -4.15877 15495 ft 346 kts
2026-05-05 00:05 57.09661 -4.15288 15041 ft 344 kts
2026-05-05 00:05 57.12030 -4.14702 14593 ft 343 kts
2026-05-05 00:05 57.14387 -4.14117 14151 ft 341 kts
2026-05-05 00:05 57.16705 -4.13544 13683 ft 340 kts
2026-05-05 00:06 57.19036 -4.12964 13195 ft 337 kts
2026-05-05 00:06 57.21351 -4.12385 12742 ft 334 kts
2026-05-05 00:06 57.23649 -4.11813 12285 ft 332 kts
2026-05-05 00:06 57.25930 -4.11243 11823 ft 329 kts
2026-05-05 00:07 57.28140 -4.10276 11539 ft 327 kts 20°
2026-05-05 00:07 57.30113 -4.08192 11178 ft 326 kts 28°
2026-05-05 00:07 57.32010 -4.05912 10798 ft 324 kts 28°
2026-05-05 00:07 57.33878 -4.03610 10480 ft 317 kts 29°
2026-05-05 00:08 57.35638 -4.01399 10345 ft 294 kts 29°
2026-05-05 00:08 57.37269 -3.99320 10052 ft 281 kts 29°
2026-05-05 00:08 57.38869 -3.97279 9454 ft 277 kts 29°
2026-05-05 00:08 57.40455 -3.95278 8851 ft 274 kts 29°
2026-05-05 00:09 57.42028 -3.93322 8244 ft 270 kts 30°
2026-05-05 00:09 57.43591 -3.91416 7612 ft 268 kts 29°
2026-05-05 00:09 57.45191 -3.89738 6993 ft 262 kts 21°
2026-05-05 00:09 57.46861 -3.88406 6416 ft 259 kts 20°
2026-05-05 00:10 57.48525 -3.87161 5781 ft 256 kts 19°
2026-05-05 00:10 57.50172 -3.85934 5165 ft 254 kts 19°
2026-05-05 00:10 57.51783 -3.84721 4823 ft 240 kts 19°
2026-05-05 00:10 57.53264 -3.83583 4694 ft 222 kts 19°
2026-05-05 00:11 57.54637 -3.82511 4551 ft 207 kts 19°
2026-05-05 00:11 57.55935 -3.81482 4326 ft 199 kts 19°
2026-05-05 00:11 57.57189 -3.80477 4092 ft 190 kts 19°
2026-05-05 00:11 57.58379 -3.79794 3959 ft 168 kts 354°
2026-05-05 00:12 57.59412 -3.80449 3702 ft 157 kts 325°
2026-05-05 00:12 57.60315 -3.81646 3297 ft 161 kts 320°
2026-05-05 00:12 57.61158 -3.82992 2944 ft 158 kts 308°
2026-05-05 00:12 57.61696 -3.84773 2574 ft 160 kts 288°
2026-05-05 00:13 57.61811 -3.86826 2321 ft 160 kts 267°
2026-05-05 00:13 57.61488 -3.88790 2146 ft 164 kts 246°
2026-05-05 00:13 57.60775 -3.90523 1916 ft 167 kts 235°
2026-05-05 00:13 57.60029 -3.92149 1686 ft 167 kts 235°
2026-05-05 00:14 57.59266 -3.93816 1457 ft 166 kts 234°
2026-05-05 00:14 57.58547 -3.95382 1184 ft 154 kts 232°
2026-05-05 00:14 57.57888 -3.96821 991 ft 141 kts 231°
2026-05-05 00:14 57.57265 -3.98179 800 ft 135 kts 232°
2026-05-05 00:15 57.56663 -3.99493 624 ft 132 kts 232°
2026-05-05 00:15 57.56064 -4.00799 456 ft 132 kts 231°
2026-05-05 00:15 57.55466 -4.02102 298 ft 132 kts 232°
2026-05-05 00:15 57.54874 -4.03391 115 ft 130 kts 232°
2026-05-05 00:16 57.54316 -4.04615 39 ft 112 kts 228°
2026-05-05 00:16 57.53955 -4.05397 39 ft 38 kts 229°
2026-05-05 00:16 57.53815 -4.05699 41 ft 30 kts 229°
2026-05-05 00:16 57.53714 -4.05926 40 ft 14 kts 245°
2026-05-05 00:17 57.53743 -4.06069 39 ft 13 kts 302°
2026-05-05 00:17 57.53813 -4.06186 36 ft 12 kts
2026-05-05 00:17 57.53893 -4.06167 34 ft 10 kts
2026-05-05 00:17 57.53924 -4.06162 36 ft 1 kts
2026-05-05 00:18 57.53934 -4.06161 36 ft 2 kts
2026-05-05 00:18 57.53958 -4.06165 36 ft 5 kts 336°
2026-05-05 00:18 57.53965 -4.06214 36 ft 3 kts 274°
2026-05-05 00:18 57.53966 -4.06233 36 ft 3 kts 275°
2026-05-05 00:19 57.53968 -4.06258 36 ft 1 kts 275°